| time (UTC) | temp F | wind direction | speed MPH | gust MPH | rain 1hr in | rain 24hr in | rain mn in | humidity % | barometer mb |
| 20260505173506 | 78 | 218 | 0.0 | 0.0 | 0.00 | 0.00 | 0.00 | 76 | 1007.5 |
| 20260505173323 | 78 | 222 | 0.0 | 0.0 | 0.00 | 0.00 | 0.00 | 77 | 1009.6 |
| 20260505173057 | 77 | 222 | 0.0 | 0.0 | 0.00 | 0.00 | 0.00 | 77 | 1007.3 |
| 20260505172819 | 78 | 197 | 0.0 | 0.0 | 0.00 | 0.00 | 0.00 | 77 | 1009.6 |
| 20260505172549 | 77 | 217 | 0.0 | 0.0 | 0.00 | 0.00 | 0.00 | 77 | 1007.6 |
| 20260505172316 | 77 | 205 | 0.0 | 0.0 | 0.00 | 0.00 | 0.00 | 77 | 1009.8 |
| 20260505172043 | 77 | 210 | 0.0 | 0.0 | 0.00 | 0.00 | 0.00 | 77 | 1007.6 |
| 20260505171827 | 78 | 207 | 0.0 | 0.0 | 0.00 | 0.00 | 0.00 | 77 | 1009.8 |
| 20260505171541 | 77 | 224 | 0.0 | 0.0 | 0.00 | 0.00 | 0.00 | 76 | 1007.7 |
| 20260505171344 | 78 | 233 | 0.0 | 0.0 | 0.00 | 0.00 | 0.00 | 76 | 1009.9 |
| 20260505171101 | 77 | 304 | 0.0 | 0.0 | 0.00 | 0.00 | 0.00 | 77 | 1007.8 |
| 20260505170817 | 77 | 199 | 0.0 | 0.0 | 0.00 | 0.00 | 0.00 | 77 | 1010.0 |
| 20260505170553 | 77 | 218 | 0.0 | 0.0 | 0.00 | 0.00 | 0.00 | 78 | 1007.8 |
| 20260505170333 | 77 | 214 | 0.0 | 0.0 | 0.00 | 0.00 | 0.00 | 78 | 1009.9 |
| 20260505170048 | 76 | 222 | 0.0 | 0.0 | 0.00 | 0.00 | 0.00 | 78 | 1007.7 |
| 20260505165830 | 77 | 225 | 0.0 | 0.0 | 0.00 | 0.00 | 0.00 | 78 | 1009.7 |
| 20260505165541 | 76 | 197 | 0.0 | 0.0 | 0.00 | 0.00 | 0.00 | 78 | 1007.5 |
| 20260505165326 | 76 | 212 | 0.0 | 0.0 | 0.00 | 0.00 | 0.00 | 78 | 1009.6 |
| 20260505165028 | 76 | 228 | 0.0 | 0.0 | 0.00 | 0.00 | 0.00 | 78 | 1007.5 |
| 20260505164843 | 77 | 222 | 0.0 | 0.0 | 0.00 | 0.00 | 0.00 | 77 | 1009.6 |
| 20260505164554 | 76 | 208 | 0.0 | 0.0 | 0.00 | 0.00 | 0.00 | 78 | 1007.4 |
| 20260505164319 | 77 | 218 | 0.0 | 0.0 | 0.00 | 0.00 | 0.00 | 78 | 1009.6 |
| 20260505164046 | 76 | 240 | 0.0 | 0.0 | 0.00 | 0.00 | 0.00 | 79 | 1007.5 |
| 20260505163814 | 77 | 211 | 0.0 | 0.0 | 0.00 | 0.00 | 0.00 | 79 | 1009.6 |
| 20260505163538 | 76 | 197 | 0.0 | 0.0 | 0.00 | 0.00 | 0.00 | 79 | 1007.5 |
| 20260505163351 | 76 | 224 | 0.0 | 0.0 | 0.00 | 0.00 | 0.00 | 80 | 1009.7 |
| 20260505163009 | 75 | 225 | 0.0 | 0.0 | 0.00 | 0.00 | 0.00 | 79 | 1007.7 |
| 20260505162826 | 76 | 211 | 0.0 | 0.0 | 0.00 | 0.00 | 0.00 | 79 | 1009.7 |
| 20260505162559 | 75 | 229 | 0.0 | 0.0 | 0.00 | 0.00 | 0.00 | 80 | 1007.7 |
| 20260505162342 | 76 | 216 | 0.0 | 0.0 | 0.00 | 0.00 | 0.00 | 79 | 1009.8 |
| 20260505162033 | 75 | 199 | 0.0 | 0.0 | 0.00 | 0.00 | 0.00 | 80 | 1007.8 |
| 20260505161837 | 75 | 216 | 0.0 | 0.0 | 0.00 | 0.00 | 0.00 | 80 | 1010.0 |
| 20260505161600 | 75 | 234 | 0.0 | 0.0 | 0.00 | 0.00 | 0.00 | 80 | 1007.7 |
| 20260505161331 | 75 | 242 | 0.0 | 0.0 | 0.00 | 0.00 | 0.00 | 80 | 1009.9 |
| 20260505161053 | 75 | 245 | 0.0 | 0.0 | 0.00 | 0.00 | 0.00 | 80 | 1007.8 |
| 20260505160828 | 75 | 232 | 0.0 | 0.0 | 0.00 | 0.00 | 0.00 | 80 | 1009.9 |
| 20260505160545 | 75 | 234 | 0.0 | 0.0 | 0.00 | 0.00 | 0.00 | 80 | 1007.7 |
| 20260505160323 | 76 | 260 | 0.0 | 0.0 | 0.00 | 0.00 | 0.00 | 80 | 1010.0 |
| 20260505153339 | 75 | 212 | 0.0 | 0.0 | 0.00 | 0.00 | 0.00 | 81 | 1009.9 |
| 20260505153058 | 74 | 218 | 0.0 | 0.0 | 0.00 | 0.00 | 0.00 | 81 | 1007.8 |
| 20260505152832 | 75 | 216 | 0.0 | 0.0 | 0.00 | 0.00 | 0.00 | 81 | 1009.9 |
| 20260505152517 | 74 | 199 | 0.0 | 0.0 | 0.00 | 0.00 | 0.00 | 81 | 1007.8 |
| 20260505152327 | 74 | 218 | 0.0 | 0.0 | 0.00 | 0.00 | 0.00 | 81 | 1009.7 |
| 20260505152011 | 74 | 223 | 0.0 | 0.0 | 0.00 | 0.00 | 0.00 | 81 | 1007.6 |
| 20260505151844 | 74 | 227 | 0.0 | 0.0 | 0.00 | 0.00 | 0.00 | 81 | 1009.7 |
| 20260505151541 | 74 | 191 | 0.0 | 0.0 | 0.00 | 0.00 | 0.00 | 82 | 1007.6 |
| 20260505151318 | 74 | 207 | 0.0 | 0.0 | 0.00 | 0.00 | 0.00 | 82 | 1009.7 |
| 20260505151034 | 73 | 233 | 0.0 | 0.0 | 0.00 | 0.00 | 0.00 | 82 | 1007.5 |
| 20260505150816 | 74 | 228 | 0.0 | 0.0 | 0.00 | 0.00 | 0.00 | 81 | 1009.6 |
| 20260505150525 | 73 | 243 | 0.0 | 0.0 | 0.00 | 0.00 | 0.00 | 82 | 1007.6 |
| 20260505150331 | 74 | 196 | 0.0 | 0.0 | 0.00 | 0.00 | 0.00 | 81 | 1009.8 |
| 20260505140521 | 71 | 224 | 11.0 | 22.0 | 0.00 | 0.00 | 0.00 | 84 | 1007.5 |
| 20260505140322 | 72 | 222 | 12.0 | 22.0 | 0.00 | 0.00 | 0.00 | 84 | 1009.4 |
| 20260505124818 | 71 | 229 | 8.0 | 14.0 | 0.00 | 0.00 | 0.00 | 86 | 1008.5 |
| 20260505124547 | 70 | 235 | 6.0 | 12.0 | 0.00 | 0.00 | 0.00 | 86 | 1006.4 |
| 20260505124315 | 70 | 228 | 8.0 | 12.0 | 0.00 | 0.00 | 0.00 | 86 | 1008.5 |
| 20260505124040 | 70 | 198 | 8.0 | 15.0 | 0.00 | 0.00 | 0.00 | 86 | 1006.5 |
| 20260505123853 | 70 | 236 | 6.0 | 15.0 | 0.00 | 0.00 | 0.00 | 87 | 1008.5 |
| 20260505123508 | 70 | 206 | 9.0 | 15.0 | 0.00 | 0.00 | 0.00 | 87 | 1006.4 |
| 20260505123329 | 70 | 214 | 7.0 | 15.0 | 0.00 | 0.00 | 0.00 | 87 | 1008.3 |
| 20260505123104 | 70 | 241 | 6.0 | 12.0 | 0.00 | 0.00 | 0.00 | 87 | 1006.3 |
| 20260505122845 | 70 | 222 | 7.0 | 12.0 | 0.00 | 0.00 | 0.00 | 87 | 1008.3 |
| 20260505122530 | 70 | 241 | 5.0 | 12.0 | 0.00 | 0.00 | 0.00 | 87 | 1006.3 |
| 20260505122319 | 70 | 241 | 7.0 | 12.0 | 0.00 | 0.00 | 0.00 | 87 | 1008.3 |
| 20260505122026 | 70 | 212 | 7.0 | 12.0 | 0.00 | 0.00 | 0.00 | 87 | 1006.2 |
| 20260505121816 | 70 | 188 | 7.0 | 10.0 | 0.00 | 0.00 | 0.00 | 87 | 1008.2 |
| 20260505121507 | 70 | 193 | 6.0 | 10.0 | 0.00 | 0.00 | 0.00 | 87 | 1006.1 |
| 20260505121351 | 70 | 222 | 8.0 | 10.0 | 0.00 | 0.00 | 0.00 | 87 | 1008.2 |
| 20260505121041 | 70 | 211 | 6.0 | 11.0 | 0.00 | 0.00 | 0.00 | 87 | 1006.2 |
| 20260505120826 | 70 | 212 | 8.0 | 12.0 | 0.00 | 0.00 | 0.00 | 87 | 1008.2 |
| 20260505120531 | 70 | 243 | 6.0 | 11.0 | 0.00 | 0.00 | 0.00 | 87 | 1006.1 |
| 20260505120322 | 70 | 207 | 6.0 | 16.0 | 0.00 | 0.00 | 0.00 | 87 | 1008.1 |
| 20260505120020 | 70 | 206 | 7.0 | 16.0 | 0.00 | 0.00 | 0.00 | 86 | 1006.1 |
| 20260505115837 | 70 | 197 | 6.0 | 16.0 | 0.00 | 0.00 | 0.00 | 86 | 1008.1 |
| 20260505115544 | 69 | 200 | 8.0 | 12.0 | 0.00 | 0.00 | 0.00 | 87 | 1006.1 |
| 20260505115351 | 70 | 224 | 6.0 | 11.0 | 0.00 | 0.00 | 0.00 | 87 | 1008.0 |
| 20260505115007 | 69 | 201 | 5.0 | 9.0 | 0.00 | 0.00 | 0.00 | 87 | 1006.0 |
| 20260505114826 | 70 | 191 | 5.0 | 9.0 | 0.00 | 0.00 | 0.00 | 87 | 1008.0 |
| 20260505114600 | 69 | 206 | 4.0 | 12.0 | 0.00 | 0.00 | 0.00 | 87 | 1005.9 |
| 20260505114324 | 70 | 201 | 4.0 | 12.0 | 0.00 | 0.00 | 0.00 | 86 | 1007.8 |
| 20260505114054 | 69 | 203 | 5.0 | 12.0 | 0.00 | 0.00 | 0.00 | 86 | 1005.9 |
| 20260505113819 | 70 | 197 | 8.0 | 12.0 | 0.00 | 0.00 | 0.00 | 86 | 1007.8 |
| 20260505113548 | 69 | 190 | 5.0 | 11.0 | 0.00 | 0.00 | 0.00 | 86 | 1005.8 |
| 20260505113314 | 70 | 208 | 6.0 | 11.0 | 0.00 | 0.00 | 0.00 | 86 | 1007.7 |
| 20260505113038 | 69 | 189 | 7.0 | 15.0 | 0.00 | 0.00 | 0.00 | 86 | 1005.8 |
| 20260505112852 | 70 | 185 | 7.0 | 15.0 | 0.00 | 0.00 | 0.00 | 86 | 1007.7 |
| 20260505112502 | 69 | 210 | 9.0 | 15.0 | 0.00 | 0.00 | 0.00 | 86 | 1005.7 |
| 20260505112330 | 70 | 199 | 8.0 | 16.0 | 0.00 | 0.00 | 0.00 | 86 | 1007.7 |
| 20260505112055 | 70 | 219 | 10.0 | 16.0 | 0.00 | 0.00 | 0.00 | 86 | 1005.8 |
| 20260505111825 | 70 | 195 | 10.0 | 16.0 | 0.00 | 0.00 | 0.00 | 86 | 1007.8 |
| 20260505111547 | 70 | 198 | 9.0 | 15.0 | 0.00 | 0.00 | 0.00 | 86 | 1005.7 |
| 20260505111320 | 70 | 213 | 10.0 | 18.0 | 0.00 | 0.00 | 0.00 | 86 | 1007.7 |
| 20260505111039 | 69 | 214 | 9.0 | 18.0 | 0.00 | 0.00 | 0.00 | 86 | 1005.6 |
| 20260505110837 | 70 | 183 | 9.0 | 18.0 | 0.00 | 0.00 | 0.00 | 86 | 1007.6 |
| 20260505110502 | 70 | 214 | 8.0 | 14.0 | 0.00 | 0.00 | 0.00 | 86 | 1005.6 |
| 20260505110328 | 70 | 204 | 7.0 | 14.0 | 0.00 | 0.00 | 0.00 | 86 | 1007.6 |
| 20260505110111 | 70 | 216 | 10.0 | 14.0 | 0.00 | 0.00 | 0.00 | 86 | 1005.7 |
| 20260505102025 | 70 | 218 | 6.0 | 14.0 | 0.00 | 0.00 | 0.00 | 86 | 1006.2 |
| 20260505101832 | 70 | 226 | 9.0 | 14.0 | 0.00 | 0.00 | 0.00 | 86 | 1008.2 |
| 20260505101506 | 70 | 194 | 8.0 | 14.0 | 0.00 | 0.00 | 0.00 | 86 | 1006.2 |
| 20260505101328 | 70 | 179 | 9.0 | 14.0 | 0.00 | 0.00 | 0.00 | 86 | 1008.1 |
| 20260505101100 | 70 | 210 | 8.0 | 15.0 | 0.00 | 0.00 | 0.00 | 86 | 1006.1 |
| 20260505100844 | 70 | 216 | 9.0 | 15.0 | 0.00 | 0.00 | 0.00 | 86 | 1008.1 |
| 20260505100531 | 70 | 220 | 9.0 | 15.0 | 0.00 | 0.00 | 0.00 | 86 | 1006.1 |
| 20260505100316 | 70 | 183 | 8.0 | 14.0 | 0.00 | 0.00 | 0.00 | 86 | 1008.0 |
| 20260505100019 | 69 | 207 | 6.0 | 13.0 | 0.00 | 0.00 | 0.00 | 86 | 1006.0 |
| 20260505095829 | 70 | 179 | 8.0 | 13.0 | 0.00 | 0.00 | 0.00 | 86 | 1007.9 |
| 20260505095510 | 69 | 158 | 7.0 | 13.0 | 0.00 | 0.00 | 0.00 | 86 | 1005.9 |
| 20260505095326 | 70 | 193 | 8.0 | 13.0 | 0.00 | 0.00 | 0.00 | 86 | 1007.8 |
| 20260505095100 | 69 | 206 | 8.0 | 13.0 | 0.00 | 0.00 | 0.00 | 86 | 1005.9 |
| 20260505094842 | 70 | 189 | 8.0 | 13.0 | 0.00 | 0.00 | 0.00 | 86 | 1007.9 |
| 20260505094532 | 69 | 192 | 8.0 | 14.0 | 0.00 | 0.00 | 0.00 | 86 | 1006.1 |
| 20260505094337 | 70 | 200 | 7.0 | 17.0 | 0.00 | 0.00 | 0.00 | 86 | 1008.0 |
| 20260505094052 | 69 | 197 | 8.0 | 17.0 | 0.00 | 0.00 | 0.00 | 86 | 1006.1 |
| 20260505093831 | 70 | 209 | 9.0 | 17.0 | 0.00 | 0.00 | 0.00 | 86 | 1008.1 |
| 20260505093545 | 69 | 214 | 9.0 | 16.0 | 0.00 | 0.00 | 0.00 | 86 | 1006.2 |
| 20260505093328 | 70 | 213 | 10.0 | 14.0 | 0.00 | 0.00 | 0.00 | 86 | 1008.2 |
| 20260505093039 | 69 | 189 | 8.0 | 16.0 | 0.00 | 0.00 | 0.00 | 86 | 1006.1 |
| 20260505092825 | 70 | 185 | 7.0 | 16.0 | 0.00 | 0.00 | 0.00 | 86 | 1008.0 |
| 20260505092529 | 69 | 220 | 9.0 | 16.0 | 0.00 | 0.00 | 0.00 | 86 | 1006.0 |
| 20260505092321 | 70 | 200 | 10.0 | 15.0 | 0.00 | 0.00 | 0.00 | 86 | 1008.0 |
| 20260505092023 | 69 | 199 | 8.0 | 15.0 | 0.00 | 0.00 | 0.00 | 86 | 1006.1 |
| 20260505091817 | 70 | 203 | 8.0 | 15.0 | 0.00 | 0.00 | 0.00 | 86 | 1008.2 |
| 20260505091506 | 69 | 206 | 9.0 | 13.0 | 0.00 | 0.00 | 0.00 | 86 | 1006.2 |
| 20260505091333 | 70 | 214 | 8.0 | 15.0 | 0.00 | 0.00 | 0.00 | 86 | 1008.1 |
| 20260505091058 | 69 | 187 | 8.0 | 15.0 | 0.00 | 0.00 | 0.00 | 86 | 1006.2 |
| 20260505090830 | 70 | 226 | 8.0 | 15.0 | 0.00 | 0.00 | 0.00 | 86 | 1008.1 |
| 20260505090552 | 69 | 197 | 9.0 | 18.0 | 0.00 | 0.00 | 0.00 | 86 | 1006.3 |
| 20260505090325 | 70 | 210 | 7.0 | 18.0 | 0.00 | 0.00 | 0.00 | 86 | 1008.2 |
| 20260505090044 | 69 | 204 | 8.0 | 18.0 | 0.00 | 0.00 | 0.00 | 87 | 1006.3 |
| 20260505085821 | 70 | 219 | 11.0 | 18.0 | 0.00 | 0.00 | 0.00 | 87 | 1008.3 |
| 20260505085536 | 69 | 220 | 8.0 | 12.0 | 0.00 | 0.00 | 0.00 | 87 | 1006.3 |
| 20260505085317 | 69 | 206 | 9.0 | 12.0 | 0.00 | 0.00 | 0.00 | 87 | 1008.2 |
| 20260505085031 | 69 | 201 | 8.0 | 16.0 | 0.00 | 0.00 | 0.00 | 87 | 1006.5 |
| 20260505084833 | 69 | 210 | 8.0 | 16.0 | 0.00 | 0.00 | 0.00 | 87 | 1008.4 |
| 20260505084513 | 69 | 231 | 10.0 | 16.0 | 0.00 | 0.00 | 0.00 | 87 | 1006.4 |
| 20260505084328 | 69 | 216 | 11.0 | 16.0 | 0.00 | 0.00 | 0.00 | 87 | 1008.4 |
| 20260505084004 | 69 | 197 | 10.0 | 17.0 | 0.00 | 0.00 | 0.00 | 87 | 1006.5 |
| 20260505083824 | 69 | 211 | 9.0 | 14.0 | 0.00 | 0.00 | 0.00 | 87 | 1008.4 |
| 20260505083558 | 69 | 189 | 9.0 | 13.0 | 0.00 | 0.00 | 0.00 | 87 | 1006.6 |
| 20260505083319 | 69 | 186 | 10.0 | 13.0 | 0.00 | 0.00 | 0.00 | 87 | 1008.5 |
| 20260505083105 | 69 | 193 | 8.0 | 14.0 | 0.00 | 0.00 | 0.00 | 87 | 1006.7 |
| 20260505082815 | 69 | 195 | 8.0 | 13.0 | 0.00 | 0.00 | 0.00 | 86 | 1008.7 |
| 20260505082542 | 69 | 224 | 8.0 | 13.0 | 0.00 | 0.00 | 0.00 | 86 | 1007.0 |
| 20260505082331 | 69 | 204 | 8.0 | 13.0 | 0.00 | 0.00 | 0.00 | 86 | 1008.8 |
| 20260505082032 | 69 | 195 | 7.0 | 13.0 | 0.00 | 0.00 | 0.00 | 86 | 1006.8 |
| 20260505081828 | 69 | 199 | 6.0 | 10.0 | 0.00 | 0.00 | 0.00 | 86 | 1008.8 |
| 20260505081526 | 69 | 209 | 5.0 | 10.0 | 0.00 | 0.00 | 0.00 | 86 | 1006.9 |
| 20260505081343 | 69 | 208 | 8.0 | 10.0 | 0.00 | 0.00 | 0.00 | 86 | 1008.9 |
| 20260505081053 | 69 | 205 | 6.0 | 9.0 | 0.00 | 0.00 | 0.00 | 86 | 1007.0 |
| 20260505080853 | 69 | 212 | 4.0 | 10.0 | 0.00 | 0.00 | 0.00 | 86 | 1008.9 |
| 20260505080519 | 69 | 218 | 5.0 | 11.0 | 0.00 | 0.00 | 0.00 | 86 | 1007.1 |
| 20260505080327 | 69 | 183 | 6.0 | 11.0 | 0.00 | 0.00 | 0.00 | 86 | 1009.1 |
| 20260505080008 | 69 | 177 | 7.0 | 11.0 | 0.00 | 0.00 | 0.00 | 86 | 1007.1 |
| 20260505075823 | 69 | 216 | 6.0 | 13.0 | 0.00 | 0.00 | 0.00 | 86 | 1009.0 |
| 20260505075504 | 69 | 193 | 5.0 | 13.0 | 0.00 | 0.00 | 0.00 | 86 | 1007.1 |
| 20260505075321 | 69 | 156 | 5.0 | 13.0 | 0.00 | 0.00 | 0.00 | 86 | 1009.0 |
| 20260505075102 | 69 | 210 | 7.0 | 13.0 | 0.00 | 0.00 | 0.00 | 86 | 1007.3 |
| 20260505074816 | 69 | 191 | 5.0 | 12.0 | 0.00 | 0.00 | 0.00 | 86 | 1009.1 |
| 20260505074554 | 69 | 202 | 7.0 | 12.0 | 0.00 | 0.00 | 0.00 | 86 | 1007.0 |
| 20260505074350 | 69 | 181 | 9.0 | 11.0 | 0.00 | 0.00 | 0.00 | 86 | 1008.9 |
| 20260505074028 | 69 | 183 | 6.0 | 11.0 | 0.00 | 0.00 | 0.00 | 86 | 1007.1 |
| 20260505073825 | 70 | 211 | 6.0 | 11.0 | 0.00 | 0.00 | 0.00 | 86 | 1009.1 |
| 20260505073524 | 69 | 193 | 5.0 | 11.0 | 0.00 | 0.00 | 0.00 | 86 | 1007.2 |
| 20260505073321 | 70 | 192 | 7.0 | 10.0 | 0.00 | 0.00 | 0.00 | 86 | 1009.1 |
| 20260505073005 | 69 | 195 | 7.0 | 11.0 | 0.00 | 0.00 | 0.00 | 86 | 1007.2 |
| 20260505072839 | 70 | 169 | 8.0 | 12.0 | 0.00 | 0.00 | 0.00 | 85 | 1009.2 |
| 20260505072537 | 69 | 166 | 6.0 | 13.0 | 0.00 | 0.00 | 0.00 | 85 | 1007.3 |
| 20260505072334 | 70 | 152 | 7.0 | 13.0 | 0.00 | 0.00 | 0.00 | 85 | 1009.2 |
| 20260505072033 | 69 | 173 | 7.0 | 13.0 | 0.00 | 0.00 | 0.00 | 85 | 1007.5 |
| 20260505071851 | 70 | 167 | 7.0 | 14.0 | 0.00 | 0.00 | 0.00 | 85 | 1009.3 |
| 20260505071558 | 69 | 198 | 8.0 | 13.0 | 0.00 | 0.00 | 0.00 | 85 | 1007.5 |
| 20260505071326 | 70 | 211 | 7.0 | 13.0 | 0.00 | 0.00 | 0.00 | 85 | 1009.5 |
| 20260505071052 | 69 | 181 | 8.0 | 13.0 | 0.00 | 0.00 | 0.00 | 85 | 1007.7 |
| 20260505070823 | 70 | 177 | 11.0 | 13.0 | 0.00 | 0.00 | 0.00 | 85 | 1009.6 |
| 20260505070542 | 69 | 186 | 8.0 | 13.0 | 0.00 | 0.00 | 0.00 | 85 | 1007.6 |
| 20260505070320 | 70 | 183 | 10.0 | 14.0 | 0.00 | 0.00 | 0.00 | 85 | 1009.4 |
| 20260505070034 | 70 | 193 | 5.0 | 15.0 | 0.00 | 0.00 | 0.00 | 85 | 1007.7 |
| 20260505065835 | 70 | 180 | 10.0 | 15.0 | 0.00 | 0.00 | 0.00 | 85 | 1009.5 |
| 20260505065559 | 70 | 137 | 9.0 | 15.0 | 0.00 | 0.00 | 0.00 | 85 | 1007.7 |
| 20260505065352 | 70 | 162 | 11.0 | 15.0 | 0.00 | 0.00 | 0.00 | 84 | 1009.6 |
| 20260505065028 | 70 | 203 | 8.0 | 14.0 | 0.00 | 0.00 | 0.00 | 84 | 1007.7 |
| 20260505064846 | 70 | 195 | 9.0 | 16.0 | 0.00 | 0.00 | 0.00 | 84 | 1009.5 |
| 20260505064639 | 70 | 206 | 9.0 | 16.0 | 0.00 | 0.00 | 0.00 | 84 | 1007.7 |
| 20260505064320 | 70 | 183 | 9.0 | 16.0 | 0.00 | 0.00 | 0.00 | 84 | 1009.6 |
| 20260505064048 | 70 | 196 | 10.0 | 16.0 | 0.00 | 0.00 | 0.00 | 84 | 1007.8 |
| 20260505063817 | 70 | 188 | 10.0 | 16.0 | 0.00 | 0.00 | 0.00 | 84 | 1009.6 |
| 20260505063542 | 70 | 172 | 8.0 | 16.0 | 0.00 | 0.00 | 0.00 | 83 | 1007.7 |
| 20260505063353 | 71 | 192 | 12.0 | 16.0 | 0.00 | 0.00 | 0.00 | 83 | 1009.6 |
| 20260505063007 | 70 | 164 | 8.0 | 16.0 | 0.00 | 0.00 | 0.00 | 83 | 1007.8 |
| 20260505062828 | 71 | 191 | 11.0 | 16.0 | 0.00 | 0.00 | 0.00 | 83 | 1009.7 |
| 20260505062600 | 70 | 172 | 10.0 | 16.0 | 0.00 | 0.00 | 0.00 | 83 | 1007.8 |
| 20260505062325 | 71 | 196 | 9.0 | 14.0 | 0.00 | 0.00 | 0.00 | 83 | 1009.6 |
| 20260505062049 | 70 | 185 | 7.0 | 14.0 | 0.00 | 0.00 | 0.00 | 83 | 1007.8 |
| 20260505061821 | 71 | 189 | 8.0 | 16.0 | 0.00 | 0.00 | 0.00 | 83 | 1009.7 |
| 20260505061541 | 70 | 186 | 9.0 | 16.0 | 0.00 | 0.00 | 0.00 | 83 | 1007.7 |
| 20260505061316 | 71 | 201 | 10.0 | 16.0 | 0.00 | 0.00 | 0.00 | 83 | 1009.6 |
| 20260505061032 | 70 | 205 | 8.0 | 18.0 | 0.00 | 0.00 | 0.00 | 83 | 1007.7 |
| 20260505060829 | 71 | 216 | 8.0 | 18.0 | 0.00 | 0.00 | 0.00 | 82 | 1009.6 |
| 20260505060514 | 70 | 183 | 10.0 | 18.0 | 0.00 | 0.00 | 0.00 | 82 | 1007.6 |
| 20260505060323 | 71 | 179 | 10.0 | 18.0 | 0.00 | 0.00 | 0.00 | 82 | 1009.6 |
| 20260505060108 | 70 | 178 | 8.0 | 14.0 | 0.00 | 0.00 | 0.00 | 82 | 1007.8 |
| 20260505055816 | 71 | 195 | 9.0 | 14.0 | 0.00 | 0.00 | 0.00 | 82 | 1009.8 |
| 20260505055544 | 70 | 195 | 7.0 | 14.0 | 0.00 | 0.00 | 0.00 | 81 | 1007.9 |
| 20260505055332 | 71 | 201 | 9.0 | 14.0 | 0.00 | 0.00 | 0.00 | 81 | 1009.9 |
| 20260505055036 | 70 | 195 | 9.0 | 12.0 | 0.00 | 0.00 | 0.00 | 81 | 1008.1 |
| 20260505054828 | 71 | 203 | 6.0 | 13.0 | 0.00 | 0.00 | 0.00 | 81 | 1010.0 |
| 20260505054543 | 71 | 179 | 7.0 | 13.0 | 0.00 | 0.00 | 0.00 | 81 | 1008.1 |
| 20260505054325 | 71 | 198 | 8.0 | 13.0 | 0.00 | 0.00 | 0.00 | 81 | 1010.0 |
| 20260505054022 | 71 | 153 | 6.0 | 13.0 | 0.00 | 0.00 | 0.00 | 81 | 1008.2 |
| 20260505053821 | 71 | 204 | 6.0 | 13.0 | 0.00 | 0.00 | 0.00 | 81 | 1010.0 |
| 20260505053502 | 71 | 203 | 8.0 | 13.0 | 0.00 | 0.00 | 0.00 | 80 | 1008.1 |
| 20260505053317 | 71 | 183 | 7.0 | 11.0 | 0.00 | 0.00 | 0.00 | 80 | 1009.9 |
| 20260505053054 | 71 | 197 | 6.0 | 14.0 | 0.00 | 0.00 | 0.00 | 80 | 1008.1 |
| 20260505052814 | 72 | 204 | 7.0 | 14.0 | 0.00 | 0.00 | 0.00 | 80 | 1009.9 |
| 20260505052548 | 71 | 195 | 8.0 | 14.0 | 0.00 | 0.00 | 0.00 | 80 | 1008.2 |
| 20260505052348 | 72 | 184 | 8.0 | 14.0 | 0.00 | 0.00 | 0.00 | 79 | 1009.9 |
| 20260505052024 | 71 | 209 | 6.0 | 13.0 | 0.00 | 0.00 | 0.00 | 79 | 1008.1 |
| 20260505051823 | 72 | 191 | 8.0 | 13.0 | 0.00 | 0.00 | 0.00 | 79 | 1009.9 |
| 20260505051504 | 71 | 189 | 4.0 | 12.0 | 0.00 | 0.00 | 0.00 | 78 | 1008.1 |
| 20260505051321 | 72 | 203 | 6.0 | 12.0 | 0.00 | 0.00 | 0.00 | 78 | 1009.9 |
| 20260505051057 | 71 | 200 | 7.0 | 12.0 | 0.00 | 0.00 | 0.00 | 78 | 1008.1 |
| 20260505050817 | 72 | 170 | 7.0 | 11.0 | 0.00 | 0.00 | 0.00 | 78 | 1009.8 |
| 20260505050548 | 71 | 197 | 6.0 | 12.0 | 0.00 | 0.00 | 0.00 | 78 | 1008.1 |
| 20260505050353 | 72 | 152 | 7.0 | 12.0 | 0.00 | 0.00 | 0.00 | 78 | 1009.8 |
| 20260505050114 | 71 | 197 | 8.0 | 12.0 | 0.00 | 0.00 | 0.00 | 78 | 1008.0 |
| 20260505041556 | 72 | 193 | 0.0 | 0.0 | 0.00 | 0.00 | 0.00 | 75 | 1008.3 |
| 20260505041320 | 73 | 195 | 0.0 | 0.0 | 0.00 | 0.00 | 0.00 | 75 | 1009.9 |
| 20260505041041 | 72 | 158 | 0.0 | 0.0 | 0.00 | 0.00 | 0.00 | 75 | 1008.3 |
| 20260505040816 | 73 | 165 | 0.0 | 0.0 | 0.00 | 0.00 | 0.00 | 75 | 1009.9 |
| 20260505040532 | 72 | 184 | 0.0 | 0.0 | 0.00 | 0.00 | 0.00 | 75 | 1008.2 |
| 20260505040328 | 73 | 188 | 0.0 | 0.0 | 0.00 | 0.00 | 0.00 | 75 | 1009.9 |
| 20260505040025 | 72 | 166 | 0.0 | 0.0 | 0.00 | 0.00 | 0.00 | 75 | 1008.1 |
| 20260505035823 | 73 | 177 | 0.0 | 0.0 | 0.00 | 0.00 | 0.00 | 74 | 1009.9 |
| 20260505035509 | 72 | 162 | 0.0 | 0.0 | 0.00 | 0.00 | 0.00 | 74 | 1008.2 |
| 20260505035320 | 73 | 183 | 0.0 | 0.0 | 0.00 | 0.00 | 0.00 | 74 | 1009.9 |
| 20260505035102 | 72 | 194 | 0.0 | 0.0 | 0.00 | 0.00 | 0.00 | 74 | 1008.2 |
| 20260505034836 | 73 | 160 | 0.0 | 0.0 | 0.00 | 0.00 | 0.00 | 74 | 1009.9 |
| 20260505034539 | 72 | 154 | 0.0 | 0.0 | 0.00 | 0.00 | 0.00 | 74 | 1008.1 |
| 20260505034331 | 73 | 187 | 0.0 | 0.0 | 0.00 | 0.00 | 0.00 | 74 | 1009.9 |
| 20260505034018 | 73 | 189 | 0.0 | 0.0 | 0.00 | 0.00 | 0.00 | 73 | 1008.2 |
| 20260505033828 | 73 | 183 | 0.0 | 0.0 | 0.00 | 0.00 | 0.00 | 73 | 1009.9 |
| 20260505033513 | 73 | 225 | 0.0 | 0.0 | 0.00 | 0.00 | 0.00 | 73 | 1008.2 |
| 20260505033345 | 73 | 178 | 0.0 | 0.0 | 0.00 | 0.00 | 0.00 | 73 | 1009.9 |
| 20260505033044 | 73 | 202 | 0.0 | 0.0 | 0.00 | 0.00 | 0.00 | 73 | 1008.2 |
| 20260505032818 | 73 | 163 | 0.0 | 0.0 | 0.00 | 0.00 | 0.00 | 73 | 1009.9 |
| 20260505032536 | 73 | 169 | 0.0 | 0.0 | 0.00 | 0.00 | 0.00 | 73 | 1008.2 |
| 20260505032315 | 73 | 164 | 0.0 | 0.0 | 0.00 | 0.00 | 0.00 | 73 | 1009.9 |
| 20260505032026 | 73 | 165 | 0.0 | 0.0 | 0.00 | 0.00 | 0.00 | 73 | 1008.2 |
| 20260505031831 | 73 | 173 | 0.0 | 0.0 | 0.00 | 0.00 | 0.00 | 73 | 1009.9 |
| 20260505031508 | 73 | 186 | 0.0 | 0.0 | 0.00 | 0.00 | 0.00 | 73 | 1008.1 |
| 20260505031326 | 73 | 201 | 0.0 | 0.0 | 0.00 | 0.00 | 0.00 | 73 | 1009.9 |
| 20260505031002 | 73 | 188 | 0.0 | 0.0 | 0.00 | 0.00 | 0.00 | 73 | 1008.1 |
| 20260505030824 | 73 | 181 | 0.0 | 0.0 | 0.00 | 0.00 | 0.00 | 73 | 1009.8 |
| 20260505030600 | 73 | 198 | 0.0 | 0.0 | 0.00 | 0.00 | 0.00 | 73 | 1008.1 |
| 20260505030320 | 73 | 187 | 0.0 | 0.0 | 0.00 | 0.00 | 0.00 | 73 | 1009.8 |
| 20260505025814 | 74 | 185 | 0.0 | 0.0 | 0.00 | 0.00 | 0.00 | 72 | 1009.8 |
| 20260505025546 | 73 | 185 | 0.0 | 0.0 | 0.00 | 0.00 | 0.00 | 72 | 1008.2 |
| 20260505025330 | 74 | 195 | 0.0 | 0.0 | 0.00 | 0.00 | 0.00 | 72 | 1009.8 |
| 20260505025039 | 73 | 178 | 0.0 | 0.0 | 0.00 | 0.00 | 0.00 | 72 | 1008.1 |
| 20260505024826 | 74 | 181 | 0.0 | 0.0 | 0.00 | 0.00 | 0.00 | 72 | 1009.8 |
| 20260505024504 | 73 | 213 | 0.0 | 0.0 | 0.00 | 0.00 | 0.00 | 72 | 1008.0 |
| 20260505024321 | 74 | 199 | 0.0 | 0.0 | 0.00 | 0.00 | 0.00 | 72 | 1009.7 |
| 20260505024057 | 73 | 193 | 0.0 | 0.0 | 0.00 | 0.00 | 0.00 | 72 | 1008.0 |
| 20260505023815 | 74 | 188 | 0.0 | 0.0 | 0.00 | 0.00 | 0.00 | 72 | 1009.7 |
| 20260505023550 | 73 | 195 | 0.0 | 0.0 | 0.00 | 0.00 | 0.00 | 72 | 1007.9 |
| 20260505023331 | 74 | 179 | 0.0 | 0.0 | 0.00 | 0.00 | 0.00 | 72 | 1009.6 |
| 20260505023046 | 73 | 172 | 0.0 | 0.0 | 0.00 | 0.00 | 0.00 | 72 | 1008.0 |
| 20260505022828 | 74 | 193 | 0.0 | 0.0 | 0.00 | 0.00 | 0.00 | 72 | 1009.8 |
| 20260505022540 | 73 | 190 | 0.0 | 0.0 | 0.00 | 0.00 | 0.00 | 71 | 1008.1 |
| 20260505022322 | 74 | 190 | 0.0 | 0.0 | 0.00 | 0.00 | 0.00 | 71 | 1009.8 |
| 20260505022037 | 74 | 212 | 0.0 | 0.0 | 0.00 | 0.00 | 0.00 | 71 | 1008.0 |
| 20260505021819 | 74 | 180 | 0.0 | 0.0 | 0.00 | 0.00 | 0.00 | 71 | 1009.7 |
| 20260505021527 | 74 | 183 | 0.0 | 0.0 | 0.00 | 0.00 | 0.00 | 71 | 1007.8 |
| 20260505021314 | 74 | 151 | 0.0 | 0.0 | 0.00 | 0.00 | 0.00 | 71 | 1009.4 |
| 20260505021021 | 74 | 187 | 0.0 | 0.0 | 0.00 | 0.00 | 0.00 | 71 | 1007.8 |
| 20260505020849 | 74 | 154 | 0.0 | 0.0 | 0.00 | 0.00 | 0.00 | 71 | 1009.6 |
| 20260505020540 | 74 | 179 | 0.0 | 0.0 | 0.00 | 0.00 | 0.00 | 71 | 1008.0 |
| 20260505020324 | 74 | 194 | 0.0 | 0.0 | 0.00 | 0.00 | 0.00 | 71 | 1009.7 |
| 20260505020038 | 74 | 199 | 0.0 | 0.0 | 0.00 | 0.00 | 0.00 | 71 | 1008.0 |
| 20260505015819 | 75 | 192 | 0.0 | 0.0 | 0.00 | 0.00 | 0.00 | 70 | 1009.7 |
| 20260505015524 | 74 | 197 | 0.0 | 0.0 | 0.00 | 0.00 | 0.00 | 70 | 1007.9 |
| 20260505015314 | 75 | 174 | 0.0 | 0.0 | 0.00 | 0.00 | 0.00 | 70 | 1009.6 |
| 20260505015008 | 74 | 157 | 0.0 | 0.0 | 0.00 | 0.00 | 0.00 | 70 | 1008.0 |
| 20260505014831 | 75 | 199 | 0.0 | 0.0 | 0.00 | 0.00 | 0.00 | 70 | 1009.7 |
| 20260505014504 | 74 | 193 | 0.0 | 0.0 | 0.00 | 0.00 | 0.00 | 70 | 1007.9 |
| 20260505014328 | 75 | 179 | 0.0 | 0.0 | 0.00 | 0.00 | 0.00 | 70 | 1009.6 |
| 20260505014058 | 74 | 195 | 0.0 | 0.0 | 0.00 | 0.00 | 0.00 | 69 | 1007.8 |
| 20260505013825 | 75 | 187 | 0.0 | 0.0 | 0.00 | 0.00 | 0.00 | 69 | 1009.5 |
| 20260505013550 | 75 | 179 | 0.0 | 0.0 | 0.00 | 0.00 | 0.00 | 69 | 1007.9 |
| 20260505013321 | 75 | 210 | 0.0 | 0.0 | 0.00 | 0.00 | 0.00 | 69 | 1009.6 |
| 20260505013042 | 75 | 194 | 0.0 | 0.0 | 0.00 | 0.00 | 0.00 | 69 | 1007.8 |
| 20260505012818 | 76 | 196 | 0.0 | 0.0 | 0.00 | 0.00 | 0.00 | 68 | 1009.5 |
| 20260505012536 | 75 | 179 | 0.0 | 0.0 | 0.00 | 0.00 | 0.00 | 68 | 1007.8 |
| 20260505012353 | 76 | 196 | 0.0 | 0.0 | 0.00 | 0.00 | 0.00 | 68 | 1009.5 |
| 20260505012058 | 75 | 192 | 0.0 | 0.0 | 0.00 | 0.00 | 0.00 | 68 | 1007.8 |
| 20260505011828 | 76 | 190 | 0.0 | 0.0 | 0.00 | 0.00 | 0.00 | 68 | 1009.5 |
| 20260505011550 | 76 | 194 | 0.0 | 0.0 | 0.00 | 0.00 | 0.00 | 68 | 1007.7 |
| 20260505011325 | 76 | 193 | 0.0 | 0.0 | 0.00 | 0.00 | 0.00 | 68 | 1009.4 |
| 20260505011047 | 76 | 163 | 0.0 | 0.0 | 0.00 | 0.00 | 0.00 | 68 | 1007.7 |
| 20260505010838 | 76 | 204 | 0.0 | 0.0 | 0.00 | 0.00 | 0.00 | 67 | 1009.3 |
| 20260505010516 | 76 | 181 | 0.0 | 0.0 | 0.00 | 0.00 | 0.00 | 67 | 1007.6 |
| 20260505010332 | 77 | 206 | 0.0 | 0.0 | 0.00 | 0.00 | 0.00 | 67 | 1009.4 |
| 20260505010113 | 76 | 174 | 0.0 | 0.0 | 0.00 | 0.00 | 0.00 | 67 | 1007.7 |
| 20260505005829 | 77 | 167 | 0.0 | 0.0 | 0.00 | 0.00 | 0.00 | 66 | 1009.4 |
| 20260505005552 | 76 | 199 | 0.0 | 0.0 | 0.00 | 0.00 | 0.00 | 66 | 1007.8 |
| 20260505005324 | 77 | 186 | 0.0 | 0.0 | 0.00 | 0.00 | 0.00 | 66 | 1009.5 |
| 20260505005042 | 77 | 199 | 0.0 | 0.0 | 0.00 | 0.00 | 0.00 | 66 | 1007.8 |
| 20260505004840 | 77 | 214 | 0.0 | 0.0 | 0.00 | 0.00 | 0.00 | 66 | 1009.5 |
| 20260505004513 | 77 | 204 | 0.0 | 0.0 | 0.00 | 0.00 | 0.00 | 65 | 1007.9 |
| 20260505004314 | 78 | 187 | 0.0 | 0.0 | 0.00 | 0.00 | 0.00 | 65 | 1009.6 |
| 20260505004100 | 77 | 192 | 0.0 | 0.0 | 0.00 | 0.00 | 0.00 | 65 | 1007.9 |
| 20260505003830 | 78 | 181 | 0.0 | 0.0 | 0.00 | 0.00 | 0.00 | 65 | 1009.6 |
| 20260505003550 | 78 | 200 | 0.0 | 0.0 | 0.00 | 0.00 | 0.00 | 64 | 1008.1 |
| 20260505003327 | 78 | 197 | 0.0 | 0.0 | 0.00 | 0.00 | 0.00 | 64 | 1009.7 |
| 20260505003045 | 78 | 218 | 0.0 | 0.0 | 0.00 | 0.00 | 0.00 | 64 | 1008.1 |
| 20260505002823 | 78 | 208 | 0.0 | 0.0 | 0.00 | 0.00 | 0.00 | 63 | 1009.8 |
| 20260505002538 | 78 | 192 | 0.0 | 0.0 | 0.00 | 0.00 | 0.00 | 63 | 1008.1 |
| 20260505002318 | 79 | 176 | 0.0 | 0.0 | 0.00 | 0.00 | 0.00 | 63 | 1009.8 |
| 20260505002028 | 78 | 185 | 0.0 | 0.0 | 0.00 | 0.00 | 0.00 | 63 | 1008.1 |
| 20260505001815 | 79 | 213 | 0.0 | 0.0 | 0.00 | 0.00 | 0.00 | 63 | 1009.8 |
| 20260505001512 | 79 | 191 | 0.0 | 0.0 | 0.00 | 0.00 | 0.00 | 63 | 1008.1 |
| 20260505001331 | 79 | 201 | 0.0 | 0.0 | 0.00 | 0.00 | 0.00 | 63 | 1009.7 |
| 20260505001003 | 79 | 213 | 0.0 | 0.0 | 0.00 | 0.00 | 0.00 | 63 | 1008.0 |
| 20260505000848 | 79 | 211 | 0.0 | 0.0 | 0.00 | 0.00 | 0.00 | 63 | 1009.6 |
| 20260505000540 | 79 | 194 | 0.0 | 0.0 | 0.00 | 0.00 | 0.00 | 63 | 1008.0 |
| 20260505000322 | 79 | 186 | 0.0 | 0.0 | 0.00 | 0.00 | 0.00 | 63 | 1009.7 |
| 20260505000037 | 79 | 187 | 0.0 | 0.0 | 0.00 | 0.00 | 0.00 | 63 | 1008.0 |
| 20260504235818 | 79 | 184 | 0.0 | 0.0 | 0.00 | 0.00 | 0.00 | 62 | 1009.6 |
| 20260504235526 | 79 | 204 | 0.0 | 0.0 | 0.00 | 0.00 | 0.00 | 62 | 1008.1 |
| 20260504235315 | 80 | 205 | 0.0 | 0.0 | 0.00 | 0.00 | 0.00 | 61 | 1009.6 |
| 20260504235012 | 79 | 194 | 0.0 | 0.0 | 0.00 | 0.00 | 0.00 | 61 | 1008.0 |
| 20260504234850 | 80 | 187 | 0.0 | 0.0 | 0.00 | 0.00 | 0.00 | 61 | 1009.6 |
| 20260504234542 | 80 | 152 | 0.0 | 0.0 | 0.00 | 0.00 | 0.00 | 61 | 1007.9 |
| 20260504234345 | 80 | 224 | 0.0 | 0.0 | 0.00 | 0.00 | 0.00 | 61 | 1009.5 |
| 20260504234006 | 80 | 224 | 0.0 | 0.0 | 0.00 | 0.00 | 0.00 | 60 | 1008.0 |
| 20260504233820 | 80 | 224 | 0.0 | 0.0 | 0.00 | 0.00 | 0.00 | 60 | 1009.6 |
| 20260504233600 | 80 | 185 | 0.0 | 0.0 | 0.00 | 0.00 | 0.00 | 61 | 1008.0 |
| 20260504233315 | 81 | 180 | 0.0 | 0.0 | 0.00 | 0.00 | 0.00 | 61 | 1009.6 |
| 20260504233052 | 80 | 196 | 0.0 | 0.0 | 0.00 | 0.00 | 0.00 | 61 | 1008.1 |
| 20260504232832 | 80 | 211 | 0.0 | 0.0 | 0.00 | 0.00 | 0.00 | 60 | 1009.8 |
| 20260504232543 | 80 | 213 | 0.0 | 0.0 | 0.00 | 0.00 | 0.00 | 61 | 1008.2 |
| 20260504232328 | 80 | 206 | 0.0 | 0.0 | 0.00 | 0.00 | 0.00 | 62 | 1009.9 |
| 20260504232036 | 80 | 211 | 0.0 | 0.0 | 0.00 | 0.00 | 0.00 | 61 | 1008.1 |
| 20260504231845 | 80 | 208 | 0.0 | 0.0 | 0.00 | 0.00 | 0.00 | 61 | 1009.7 |
| 20260504231625 | 80 | 207 | 0.0 | 0.0 | 0.00 | 0.00 | 0.00 | 61 | 1008.3 |
| 20260504231320 | 80 | 192 | 0.0 | 0.0 | 0.00 | 0.00 | 0.00 | 61 | 1009.9 |
| 20260504231052 | 80 | 206 | 0.0 | 0.0 | 0.00 | 0.00 | 0.00 | 61 | 1008.0 |
| 20260504230817 | 81 | 222 | 0.0 | 0.0 | 0.00 | 0.00 | 0.00 | 60 | 1009.7 |
| 20260504230542 | 80 | 212 | 0.0 | 0.0 | 0.00 | 0.00 | 0.00 | 60 | 1008.1 |
| 20260504230314 | 81 | 181 | 0.0 | 0.0 | 0.00 | 0.00 | 0.00 | 60 | 1009.6 |
| 20260504230034 | 80 | 195 | 0.0 | 0.0 | 0.00 | 0.00 | 0.00 | 59 | 1008.1 |
| 20260504225830 | 81 | 206 | 0.0 | 0.0 | 0.00 | 0.00 | 0.00 | 59 | 1009.7 |
| 20260504225526 | 81 | 154 | 0.0 | 0.0 | 0.00 | 0.00 | 0.00 | 59 | 1008.1 |
| 20260504225347 | 81 | 192 | 0.0 | 0.0 | 0.00 | 0.00 | 0.00 | 59 | 1009.8 |
| 20260504225056 | 81 | 185 | 0.0 | 0.0 | 0.00 | 0.00 | 0.00 | 59 | 1008.1 |
| 20260504224821 | 82 | 174 | 0.0 | 0.0 | 0.00 | 0.00 | 0.00 | 59 | 1009.8 |
| 20260504224544 | 81 | 154 | 0.0 | 0.0 | 0.00 | 0.00 | 0.00 | 59 | 1008.2 |
| 20260504224401 | 82 | 197 | 0.0 | 0.0 | 0.00 | 0.00 | 0.00 | 58 | 1009.9 |
| 20260504224016 | 81 | 209 | 0.0 | 0.0 | 0.00 | 0.00 | 0.00 | 59 | 1008.2 |
| 20260504223830 | 82 | 199 | 0.0 | 0.0 | 0.00 | 0.00 | 0.00 | 59 | 1010.0 |
| 20260504223502 | 82 | 191 | 0.0 | 0.0 | 0.00 | 0.00 | 0.00 | 59 | 1008.3 |
| 20260504223347 | 82 | 212 | 0.0 | 0.0 | 0.00 | 0.00 | 0.00 | 60 | 1009.9 |
| 20260504223034 | 81 | 212 | 0.0 | 0.0 | 0.00 | 0.00 | 0.00 | 60 | 1008.2 |
| 20260504222843 | 82 | 190 | 0.0 | 0.0 | 0.00 | 0.00 | 0.00 | 59 | 1009.9 |
| 20260504222601 | 81 | 164 | 0.0 | 0.0 | 0.00 | 0.00 | 0.00 | 59 | 1008.3 |
| 20260504222318 | 82 | 229 | 0.0 | 0.0 | 0.00 | 0.00 | 0.00 | 60 | 1010.0 |
| 20260504222051 | 81 | 185 | 0.0 | 0.0 | 0.00 | 0.00 | 0.00 | 60 | 1008.4 |
| 20260504221853 | 81 | 179 | 0.0 | 0.0 | 0.00 | 0.00 | 0.00 | 59 | 1010.2 |
| 20260504221514 | 81 | 171 | 0.0 | 0.0 | 0.00 | 0.00 | 0.00 | 59 | 1008.6 |
| 20260504221328 | 81 | 199 | 0.0 | 0.0 | 0.00 | 0.00 | 0.00 | 59 | 1010.1 |
| 20260504221007 | 81 | 223 | 0.0 | 0.0 | 0.00 | 0.00 | 0.00 | 59 | 1008.5 |
| 20260504220823 | 82 | 207 | 0.0 | 0.0 | 0.00 | 0.00 | 0.00 | 58 | 1010.1 |
| 20260504220604 | 81 | 194 | 0.0 | 0.0 | 0.00 | 0.00 | 0.00 | 59 | 1008.6 |
| 20260504220318 | 82 | 201 | 0.0 | 0.0 | 0.00 | 0.00 | 0.00 | 59 | 1010.3 |
| 20260504220052 | 81 | 241 | 0.0 | 0.0 | 0.00 | 0.00 | 0.00 | 60 | 1008.6 |
| 20260504215833 | 81 | 211 | 0.0 | 0.0 | 0.00 | 0.00 | 0.00 | 60 | 1010.2 |
| 20260504215546 | 81 | 201 | 0.0 | 0.0 | 0.00 | 0.00 | 0.00 | 60 | 1008.7 |
| 20260504215329 | 81 | 225 | 0.0 | 0.0 | 0.00 | 0.00 | 0.00 | 59 | 1010.3 |
| 20260504215037 | 80 | 204 | 0.0 | 0.0 | 0.00 | 0.00 | 0.00 | 60 | 1008.7 |
| 20260504214825 | 81 | 172 | 0.0 | 0.0 | 0.00 | 0.00 | 0.00 | 60 | 1010.3 |
| 20260504214528 | 80 | 218 | 0.0 | 0.0 | 0.00 | 0.00 | 0.00 | 59 | 1008.7 |
| 20260504214319 | 81 | 151 | 0.0 | 0.0 | 0.00 | 0.00 | 0.00 | 60 | 1010.4 |
| 20260504214020 | 80 | 228 | 0.0 | 0.0 | 0.00 | 0.00 | 0.00 | 59 | 1008.8 |
| 20260504213836 | 81 | 193 | 0.0 | 0.0 | 0.00 | 0.00 | 0.00 | 60 | 1010.5 |
| 20260504213543 | 80 | 186 | 0.0 | 0.0 | 0.00 | 0.00 | 0.00 | 60 | 1009.0 |
| 20260504213332 | 81 | 185 | 0.0 | 0.0 | 0.00 | 0.00 | 0.00 | 61 | 1010.5 |
| 20260504213041 | 80 | 191 | 0.0 | 0.0 | 0.00 | 0.00 | 0.00 | 60 | 1008.9 |
| 20260504212827 | 81 | 221 | 0.0 | 0.0 | 0.00 | 0.00 | 0.00 | 61 | 1010.7 |
| 20260504212530 | 80 | 195 | 0.0 | 0.0 | 0.00 | 0.00 | 0.00 | 62 | 1009.0 |
| 20260504212325 | 81 | 211 | 0.0 | 0.0 | 0.00 | 0.00 | 0.00 | 60 | 1010.7 |
| 20260504212021 | 80 | 156 | 0.0 | 0.0 | 0.00 | 0.00 | 0.00 | 61 | 1009.0 |
| 20260504211840 | 80 | 158 | 0.0 | 0.0 | 0.00 | 0.00 | 0.00 | 61 | 1010.7 |
| 20260504211547 | 80 | 158 | 0.0 | 0.0 | 0.00 | 0.00 | 0.00 | 61 | 1008.9 |
| 20260504211353 | 80 | 206 | 0.0 | 0.0 | 0.00 | 0.00 | 0.00 | 60 | 1010.6 |
| 20260504211007 | 80 | 195 | 0.0 | 0.0 | 0.00 | 0.00 | 0.00 | 60 | 1009.1 |
| 20260504210830 | 81 | 181 | 0.0 | 0.0 | 0.00 | 0.00 | 0.00 | 60 | 1010.8 |
| 20260504210603 | 80 | 180 | 0.0 | 0.0 | 0.00 | 0.00 | 0.00 | 61 | 1009.3 |
| 20260504210327 | 81 | 162 | 0.0 | 0.0 | 0.00 | 0.00 | 0.00 | 61 | 1011.0 |
| 20260504210052 | 80 | 194 | 0.0 | 0.0 | 0.00 | 0.00 | 0.00 | 63 | 1009.3 |
| 20260504205821 | 80 | 214 | 0.0 | 0.0 | 0.00 | 0.00 | 0.00 | 63 | 1011.0 |
| 20260504205544 | 80 | 214 | 0.0 | 0.0 | 0.00 | 0.00 | 0.00 | 61 | 1009.6 |
| 20260504205318 | 80 | 228 | 0.0 | 0.0 | 0.00 | 0.00 | 0.00 | 62 | 1011.2 |
| 20260504205035 | 79 | 197 | 0.0 | 0.0 | 0.00 | 0.00 | 0.00 | 62 | 1009.7 |
| 20260504204850 | 80 | 218 | 0.0 | 0.0 | 0.00 | 0.00 | 0.00 | 62 | 1011.3 |
| 20260504204502 | 79 | 175 | 0.0 | 0.0 | 0.00 | 0.00 | 0.00 | 62 | 1009.9 |
| 20260504204325 | 80 | 197 | 0.0 | 0.0 | 0.00 | 0.00 | 0.00 | 62 | 1011.6 |
| 20260504204058 | 79 | 201 | 0.0 | 0.0 | 0.00 | 0.00 | 0.00 | 62 | 1010.0 |
| 20260504203822 | 79 | 194 | 0.0 | 0.0 | 0.00 | 0.00 | 0.00 | 63 | 1011.7 |
| 20260504203550 | 79 | 215 | 0.0 | 0.0 | 0.00 | 0.00 | 0.00 | 62 | 1010.1 |
| 20260504203338 | 80 | 212 | 0.0 | 0.0 | 0.00 | 0.00 | 0.00 | 63 | 1011.8 |
| 20260504203018 | 79 | 216 | 0.0 | 0.0 | 0.00 | 0.00 | 0.00 | 63 | 1010.2 |
| 20260504202814 | 79 | 157 | 0.0 | 0.0 | 0.00 | 0.00 | 0.00 | 62 | 1011.9 |
| 20260504202602 | 79 | 173 | 0.0 | 0.0 | 0.00 | 0.00 | 0.00 | 62 | 1010.5 |
| 20260504202329 | 79 | 228 | 0.0 | 0.0 | 0.00 | 0.00 | 0.00 | 64 | 1012.0 |
| 20260504202055 | 79 | 224 | 0.0 | 0.0 | 0.00 | 0.00 | 0.00 | 63 | 1010.5 |
| 20260504201846 | 79 | 164 | 0.0 | 0.0 | 0.00 | 0.00 | 0.00 | 63 | 1012.1 |
| 20260504201527 | 78 | 177 | 0.0 | 0.0 | 0.00 | 0.00 | 0.00 | 63 | 1010.6 |
| 20260504201322 | 79 | 226 | 0.0 | 0.0 | 0.00 | 0.00 | 0.00 | 64 | 1012.3 |
| 20260504201008 | 78 | 175 | 0.0 | 0.0 | 0.00 | 0.00 | 0.00 | 64 | 1010.7 |
| 20260504200818 | 79 | 164 | 0.0 | 0.0 | 0.00 | 0.00 | 0.00 | 64 | 1012.2 |
| 20260504200559 | 78 | 222 | 0.0 | 0.0 | 0.00 | 0.00 | 0.00 | 64 | 1010.8 |
| 20260504200315 | 78 | 214 | 0.0 | 0.0 | 0.00 | 0.00 | 0.00 | 63 | 1012.4 |
| 20260504200054 | 78 | 214 | 0.0 | 0.0 | 0.00 | 0.00 | 0.00 | 65 | 1010.8 |
| 20260504195830 | 78 | 214 | 0.0 | 0.0 | 0.00 | 0.00 | 0.00 | 64 | 1012.3 |
| 20260504195545 | 77 | 198 | 0.0 | 0.0 | 0.00 | 0.00 | 0.00 | 64 | 1010.8 |
| 20260504195326 | 78 | 222 | 0.0 | 0.0 | 0.00 | 0.00 | 0.00 | 63 | 1012.4 |
| 20260504195037 | 77 | 230 | 0.0 | 0.0 | 0.00 | 0.00 | 0.00 | 64 | 1010.9 |
| 20260504194842 | 78 | 223 | 0.0 | 0.0 | 0.00 | 0.00 | 0.00 | 64 | 1012.6 |
| 20260504194606 | 77 | 219 | 0.0 | 0.0 | 0.00 | 0.00 | 0.00 | 65 | 1011.2 |
| 20260504194316 | 77 | 206 | 0.0 | 0.0 | 0.00 | 0.00 | 0.00 | 65 | 1012.8 |
| 20260504194054 | 77 | 206 | 0.0 | 0.0 | 0.00 | 0.00 | 0.00 | 65 | 1011.2 |
| 20260504193832 | 77 | 193 | 0.0 | 0.0 | 0.00 | 0.00 | 0.00 | 64 | 1012.8 |
| 20260504193545 | 77 | 195 | 0.0 | 0.0 | 0.00 | 0.00 | 0.00 | 64 | 1011.1 |
| 20260504193329 | 77 | 186 | 0.0 | 0.0 | 0.00 | 0.00 | 0.00 | 64 | 1012.7 |
| 20260504193044 | 77 | 201 | 0.0 | 0.0 | 0.00 | 0.00 | 0.00 | 65 | 1011.3 |
| 20260504192824 | 77 | 169 | 0.0 | 0.0 | 0.00 | 0.00 | 0.00 | 66 | 1013.0 |
| 20260504192527 | 76 | 220 | 0.0 | 0.0 | 0.00 | 0.00 | 0.00 | 65 | 1011.4 |
| 20260504192320 | 77 | 216 | 0.0 | 0.0 | 0.00 | 0.00 | 0.00 | 67 | 1013.1 |
| 20260504192023 | 76 | 193 | 0.0 | 0.0 | 0.00 | 0.00 | 0.00 | 65 | 1011.7 |
| 20260504191816 | 77 | 173 | 0.0 | 0.0 | 0.00 | 0.00 | 0.00 | 66 | 1013.3 |
| 20260504191517 | 76 | 216 | 0.0 | 0.0 | 0.00 | 0.00 | 0.00 | 65 | 1011.5 |
| 20260504191314 | 77 | 224 | 0.0 | 0.0 | 0.00 | 0.00 | 0.00 | 65 | 1013.1 |
| 20260504191013 | 76 | 211 | 0.0 | 0.0 | 0.00 | 0.00 | 0.00 | 67 | 1011.5 |
| 20260504190830 | 77 | 226 | 0.0 | 0.0 | 0.00 | 0.00 | 0.00 | 67 | 1013.1 |
| 20260504190555 | 76 | 198 | 0.0 | 0.0 | 0.00 | 0.00 | 0.00 | 67 | 1011.8 |
| 20260504190325 | 76 | 198 | 0.0 | 0.0 | 0.00 | 0.00 | 0.00 | 67 | 1013.3 |
| 20260504190049 | 75 | 214 | 0.0 | 0.0 | 0.00 | 0.00 | 0.00 | 67 | 1012.0 |
| 20260504185821 | 76 | 172 | 0.0 | 0.0 | 0.00 | 0.00 | 0.00 | 67 | 1013.5 |
| 20260504185546 | 75 | 186 | 0.0 | 0.0 | 0.00 | 0.00 | 0.00 | 67 | 1012.0 |
| 20260504185319 | 75 | 211 | 0.0 | 0.0 | 0.00 | 0.00 | 0.00 | 68 | 1013.5 |
| 20260504185035 | 75 | 215 | 0.0 | 0.0 | 0.00 | 0.00 | 0.00 | 69 | 1012.0 |
| 20260504184854 | 75 | 236 | 0.0 | 0.0 | 0.00 | 0.00 | 0.00 | 69 | 1013.6 |
| 20260504184609 | 75 | 194 | 0.0 | 0.0 | 0.00 | 0.00 | 0.00 | 68 | 1012.1 |
| 20260504184330 | 75 | 226 | 0.0 | 0.0 | 0.00 | 0.00 | 0.00 | 68 | 1013.7 |
| 20260504184052 | 74 | 243 | 0.0 | 0.0 | 0.00 | 0.00 | 0.00 | 68 | 1012.3 |
| 20260504183826 | 75 | 181 | 0.0 | 0.0 | 0.00 | 0.00 | 0.00 | 68 | 1013.8 |
| 20260504183542 | 74 | 211 | 0.0 | 0.0 | 0.00 | 0.00 | 0.00 | 69 | 1012.3 |
| 20260504183342 | 75 | 208 | 0.0 | 0.0 | 0.00 | 0.00 | 0.00 | 69 | 1013.9 |
| 20260504183003 | 74 | 166 | 0.0 | 0.0 | 0.00 | 0.00 | 0.00 | 69 | 1012.3 |
| 20260504182818 | 74 | 198 | 0.0 | 0.0 | 0.00 | 0.00 | 0.00 | 70 | 1013.8 |
| 20260504182557 | 74 | 237 | 0.0 | 0.0 | 0.00 | 0.00 | 0.00 | 69 | 1012.5 |
| 20260504182314 | 74 | 211 | 0.0 | 0.0 | 0.00 | 0.00 | 0.00 | 69 | 1013.9 |
| 20260504182053 | 74 | 205 | 0.0 | 0.0 | 0.00 | 0.00 | 0.00 | 69 | 1012.5 |
| 20260504181830 | 74 | 172 | 0.0 | 0.0 | 0.00 | 0.00 | 0.00 | 71 | 1013.8 |
| 20260504181543 | 73 | 145 | 0.0 | 0.0 | 0.00 | 0.00 | 0.00 | 70 | 1012.4 |
| 20260504181325 | 74 | 209 | 0.0 | 0.0 | 0.00 | 0.00 | 0.00 | 71 | 1014.1 |
| 20260504181037 | 73 | 215 | 0.0 | 0.0 | 0.00 | 0.00 | 0.00 | 71 | 1012.7 |
| 20260504180819 | 73 | 216 | 0.0 | 0.0 | 0.00 | 0.00 | 0.00 | 71 | 1014.2 |
| 20260504180530 | 73 | 226 | 0.0 | 0.0 | 0.00 | 0.00 | 0.00 | 71 | 1012.8 |
| 20260504180317 | 73 | 210 | 0.0 | 0.0 | 0.00 | 0.00 | 0.00 | 70 | 1014.4 |
| 20260504180016 | 73 | 240 | 0.0 | 0.0 | 0.00 | 0.00 | 0.00 | 72 | 1012.8 |
| 20260504175833 | 73 | 241 | 0.0 | 0.0 | 0.00 | 0.00 | 0.00 | 72 | 1014.4 |
| 20260504175507 | 72 | 241 | 0.0 | 0.0 | 0.00 | 0.00 | 0.00 | 72 | 1012.8 |
| 20260504175344 | 72 | 229 | 0.0 | 0.0 | 0.00 | 0.00 | 0.00 | 72 | 1014.4 |
| 20260504175039 | 72 | 189 | 0.0 | 0.0 | 0.00 | 0.00 | 0.00 | 71 | 1012.9 |
| 20260504174820 | 72 | 215 | 0.0 | 18.0 | 0.00 | 0.00 | 0.00 | 72 | 1014.5 |
| 20260504174533 | 71 | 204 | 0.0 | 18.0 | 0.00 | 0.00 | 0.00 | 72 | 1013.0 |
| 20260504174317 | 72 | 186 | 0.0 | 19.0 | 0.00 | 0.00 | 0.00 | 73 | 1014.7 |
| 20260504174025 | 71 | 220 | 8.0 | 21.0 | 0.00 | 0.00 | 0.00 | 72 | 1013.2 |
| 20260504173833 | 71 | 208 | 12.0 | 21.0 | 0.00 | 0.00 | 0.00 | 73 | 1014.6 |